Location: Cz?stochówka
(50.8142°N, 19.0915°E)
Time: 05:40:46
(UTC+00:00)

Gblst 52 Del rocket - Pass Details

Date: 13 January 2026
Orbit: 805 x 1364 km, 51.5° (Epoch: 9 February)

Event Time Altitude Azimuth Distance (km) Brightness Sun altitude
Exits shadow 05:40:14 11° 284° (WNW) 2,297 5.8 -9.3°
Maximum altitude 05:45:22 59° 206° (SSW) 934 4.5 -8.5°
Drops below altitude 10° 05:50:55 10° 129° (SE) 2,468 8.2 -7.7°
Sets 05:53:31 0° 125° (SE) 3,458 9.5 -7.4°
